Location: Lecco
(45.8566°N, 9.3977°E)
Time: 06:16:29
(UTC+02:00)

ISS - Pass Details

Date: 22 July 2018
Orbit: 402 x 408 km, 51.6° (Epoch: 23 July)

Event Time Altitude Azimuth Distance (km) Brightness Sun altitude
Rises 23:36:45 0° 270° (W) 2,319 0.4 -19.3°
Reaches altitude 10° 23:38:57 10° 280° (W) 1,462 -0.5 -19.4°
Maximum altitude 23:41:59 34° 348° (NNW) 690 -2.1 -19.7°
Drops below altitude 10° 23:45:02 10° 55° (NE) 1,468 -0.9 -19.9°
Sets 23:47:15 0° 65° (ENE) 2,331 0.0 -20.1°
